DW8487 Weather Reports


Display with metric or nautical units.
time (UTC)temp
F
wind
direction
speed
MPH
gust
MPH
rain 1hr
in
rain 24hr
in
rain mn
in
humidity
%
barometer
mb
20260506231508 36 165 4.0 5.0 0.00 0.14 0.00 82 1013.2
20260506230007 36 151 3.0 6.0 0.00 0.14 0.00 83 1013.0
20260506224507 36 178 2.0 7.0 0.00 0.14 0.00 83 1013.1
20260506223006 36 170 4.0 7.0 0.00 0.14 0.00 83 1013.1
20260506221502 36 159 3.0 5.0 0.00 0.14 0.00 83 1013.2
20260506220059 36 182 4.0 5.0 0.00 0.14 0.00 83 1013.0
20260506214609 36 149 3.0 7.0 0.00 0.14 0.14 83 1012.9
20260506213057 36 175 2.0 5.0 0.00 0.14 0.14 84 1012.6
20260506211557 36 190 2.0 8.0 0.00 0.14 0.14 84 1012.4
20260506210057 36 149 2.0 3.0 0.00 0.14 0.14 84 1012.3
20260506204553 37 148 2.0 5.0 0.00 0.15 0.14 83 1012.1
20260506203055 37 163 3.0 7.0 0.00 0.15 0.14 84 1012.0
20260506201618 38 144 2.0 4.0 0.00 0.15 0.14 83 1011.9
20260506200120 38 144 2.0 4.0 0.00 0.16 0.14 82 1011.7
20260506194545 38 144 3.0 5.0 0.00 0.16 0.14 83 1011.5
20260506193046 38 144 2.0 4.0 0.00 0.16 0.14 83 1011.3
20260506191546 39 144 2.0 5.0 0.00 0.16 0.14 82 1011.0
20260506190040 39 144 2.0 4.0 0.00 0.19 0.14 83 1010.7
20260506184538 40 140 2.0 5.0 0.00 0.19 0.14 82 1010.6
20260506183037 41 134 3.0 4.0 0.00 0.19 0.14 81 1010.3
20260506181538 43 134 3.0 4.0 0.00 0.19 0.14 79 1010.3
20260506180046 44 130 2.0 3.0 0.00 0.19 0.14 79 1009.9
20260506174536 44 73 4.0 9.0 0.00 0.19 0.14 73 1009.8
20260506173035 45 29 3.0 8.0 0.00 0.19 0.14 73 1009.7
20260506171547 45 59 1.0 8.0 0.00 0.19 0.14 73 1009.5
20260506170036 46 13 4.0 10.0 0.00 0.19 0.14 73 1009.3
20260506164537 46 60 1.0 3.0 0.00 0.19 0.14 75 1009.1
20260506163044 46 360 1.0 2.0 0.00 0.19 0.14 76 1009.0
20260506161544 46 360 2.0 5.0 0.00 0.19 0.14 73 1008.9
20260506160033 47 105 1.0 5.0 0.00 0.20 0.14 72 1008.8
20260506154532 48 105 1.0 4.0 0.00 0.20 0.14 70 1008.7
20260506153032 49 79 2.0 5.0 0.00 0.20 0.14 69 1008.7
20260506151531 48 52 2.0 10.0 0.00 0.20 0.14 67 1008.6
20260506150034 49 5 6.0 13.0 0.00 0.24 0.14 68 1008.6
20260506144529 50 346 2.0 5.0 0.00 0.24 0.14 71 1008.5
20260506143026 47 90 1.0 16.0 0.00 0.24 0.14 73 1008.6
20260506141525 47 355 8.0 16.0 0.00 0.24 0.14 78 1008.7
20260506140025 48 355 7.0 12.0 0.00 0.24 0.14 80 1008.6
20260506134557 48 276 0.0 3.0 0.00 0.24 0.14 76 1008.6
20260506133024 47 35 0.0 6.0 0.00 0.24 0.14 77 1008.6
20260506131526 47 342 1.0 5.0 0.00 0.24 0.14 78 1008.7
20260506130021 47 323 2.0 3.0 0.00 0.24 0.14 78 1008.7
20260506124518 47 63 1.0 4.0 0.00 0.24 0.14 82 1008.9
20260506123016 46 28 1.0 4.0 0.00 0.24 0.14 80 1008.8
20260506121515 46 344 0.0 3.0 0.00 0.24 0.14 82 1008.9
20260506120012 45 344 0.0 3.0 0.00 0.26 0.14 89 1009.0
20260506114519 44 326 4.0 9.0 0.00 0.26 0.14 91 1009.0
20260506113006 42 151 0.0 3.0 0.00 0.26 0.14 93 1009.1
20260506111502 42 92 1.0 6.0 0.02 0.26 0.14 93 1009.0
20260506110006 41 347 3.0 8.0 0.02 0.26 0.14 94 1009.2
20260506104501 41 17 3.0 6.0 0.02 0.26 0.14 94 1009.1
20260506101559 41 25 7.0 14.0 0.02 0.24 0.13 94 1008.6
20260506100059 42 51 8.0 14.0 0.01 0.24 0.12 94 1008.3
20260506094555 41 71 3.0 5.0 0.01 0.24 0.12 94 1008.5
20260506093058 41 360 2.0 4.0 0.00 0.23 0.11 94 1008.4
20260506091553 41 16 1.0 5.0 0.01 0.23 0.11 94 1008.2
20260506090053 41 38 2.0 5.0 0.01 0.23 0.11 94 1008.3
20260506084555 41 38 2.0 6.0 0.01 0.23 0.11 94 1008.3
20260506083112 41 10 2.0 9.0 0.01 0.23 0.11 94 1008.2
20260506081552 41 346 3.0 11.0 0.00 0.22 0.10 94 1008.2
20260506073045 41 355 0.0 2.0 0.01 0.22 0.10 94 1007.7
20260506071545 41 355 0.0 5.0 0.02 0.22 0.10 94 1007.8
20260506061541 41 57 0.0 1.0 0.06 0.20 0.08 94 1007.7
20260506044526 41 22 0.0 2.0 0.01 0.23 0.01 94 1008.2
20260506043025 41 22 1.0 4.0 0.00 0.22 0.00 94 1008.2
20260506041523 41 22 1.0 3.0 0.00 0.22 0.00 94 1008.4
20260506040026 41 355 0.0 2.0 0.00 0.23 0.00 94 1008.5
20260506034520 41 355 0.0 4.0 0.00 0.23 0.00 94 1008.9
20260506033019 41 355 1.0 4.0 0.00 0.23 0.00 94 1009.0
20260506031526 41 23 1.0 3.0 0.00 0.23 0.00 94 1009.1
20260506030016 41 23 0.0 2.0 0.00 0.23 0.00 94 1009.3
20260506024529 41 23 0.0 1.0 0.00 0.23 0.00 94 1009.7
20260506023013 41 23 1.0 4.0 0.00 0.23 0.00 94 1009.8
20260506021511 41 9 2.0 4.0 0.00 0.23 0.00 94 1010.2
20260506020009 41 346 1.0 4.0 0.00 0.23 0.00 94 1010.1
20260506014512 41 13 0.0 0.0 0.00 0.23 0.00 94 1010.4
20260506013034 41 13 0.0 2.0 0.00 0.23 0.00 94 1010.9
20260506011501 41 13 0.0 2.0 0.00 0.23 0.00 94 1011.2
20260506010059 41 13 1.0 3.0 0.00 0.23 0.00 94 1011.3
20260506004605 41 16 1.0 5.0 0.00 0.23 0.00 94 1011.4
20260506003056 41 23 2.0 4.0 0.00 0.23 0.00 94 1011.4
20260506001556 41 360 1.0 2.0 0.00 0.23 0.00 94 1011.7
20260506000117 41 360 0.0 2.0 0.00 0.23 0.00 94 1012.0
20260505234554 41 360 2.0 4.0 0.00 0.27 0.00 94 1012.3
20260505233057 41 360 3.0 4.0 0.00 0.27 0.00 94 1012.4